This is the latest recevied weather packets stored in our database for station/object WE0DX-1. If no packets are shown the sender has not sent any weather packets the latest 10 day(s).
| Time | Temp. | Humidity | Pressure | Rain* | Wind** | Luminosity | Snow |
|---|---|---|---|---|---|---|---|
| 1777530417 | 8.89° C | 79% | 1018.4 hPa | 0 mm | - | 0 W/m² | - |
| 1777530113 | 8.33° C | 74% | 1018.5 hPa | 0 mm | - | 0 W/m² | - |
| 1777529810 | 8.33° C | 76% | 1018.3 hPa | 0 mm | - | 0 W/m² | - |
| 1777529507 | 8.89° C | 75% | 1018.4 hPa | 0 mm | - | 0 W/m² | - |
| 1777529204 | 8.89° C | 73% | 1018.4 hPa | 0 mm | - | 0 W/m² | - |
| 1777528899 | 8.89° C | 75% | 1018.6 hPa | 0 mm | - | 0 W/m² | - |
| 1777528596 | 8.89° C | 72% | 1018.6 hPa | 0 mm | - | 0 W/m² | - |
| 1777528293 | 9.44° C | 70% | 1018.5 hPa | 0 mm | - | 0 W/m² | - |
| 1777527993 | 8.89° C | 72% | 1018.5 hPa | 0 mm | - | 0 W/m² | - |
| 1777527687 | 8.89° C | 73% | 1018.8 hPa | 0 mm | - | 0 W/m² | - |
| 1777527383 | 8.89° C | 72% | 1018.5 hPa | 0 mm | - | 0 W/m² | - |
| 1777527078 | 8.33° C | 73% | 1018.4 hPa | 0 mm | - | 0 W/m² | - |
| 1777526775 | 8.89° C | 76% | 1018.5 hPa | 0 mm | - | 0 W/m² | - |
| 1777526475 | 10° C | 70% | 1018.4 hPa | 0 mm | - | 0 W/m² | - |
| 1777526170 | 10.56° C | 68% | 1018.5 hPa | 0 mm | - | 0 W/m² | - |
| 1777525866 | 10.56° C | 62% | 1018.6 hPa | 0 mm | - | 0 W/m² | - |
| 1777525564 | 10.56° C | 62% | 1018.5 hPa | 0 mm | - | 0 W/m² | - |
| 1777525261 | 11.11° C | 61% | 1018.6 hPa | 0 mm | - | 0 W/m² | - |
| 1777524956 | 11.11° C | 61% | 1018.6 hPa | 0 mm | - | 0 W/m² | - |
| 1777524654 | 10.56° C | 62% | 1018.8 hPa | 0 mm | - | 0 W/m² | - |
| 1777524352 | 10.56° C | 62% | 1018.6 hPa | 0 mm | - | 0 W/m² | - |
| 1777524047 | 10.56° C | 64% | 1018.8 hPa | 0 mm | - | 0 W/m² | - |
| 1777523744 | 10.56° C | 63% | 1018.6 hPa | 0 mm | - | 0 W/m² | - |
| 1777523440 | 11.11° C | 60% | 1018.5 hPa | 0 mm | - | 0 W/m² | - |
| 1777523137 | 11.11° C | 60% | 1018.7 hPa | 0 mm | - | 0 W/m² | - |
* Rain latest hour (hover to see other rain measurements)
** Current wind speed in m/s (hover to see current wind gust speed)